Briefing drone pour Saint-etienne (LFMH)

Rechercher une autre localisation

Conditions de vol :


Nous sommes le : Samedi 15 mai 2021
Il est 02:42 UTC (04:42 LT)

Lever de soleil : 03:45 UTC (05:45 LT)
Coucher de soleil : 19:32 UTC (21:32 LT)

Météo

L'essentiel des conditions de vol

VIGILANCE MÉTÉO FRANCE - Loire (42)
Pas de vigilances particulieres
CARTE TEMSI
CARTES DES FRONTS
METAR de LFMH
LFMH 150230Z AUTO 16007KT CAVOK 09/04 Q1012 NOSIG

Date d'émission: 15/05/2021
Heure d'émission: 02:30 UTC
Vent: 160° pour 7 KT (13 km/h)
Visibilité horizontale: > 10 km
Plafond : Plafond et visibilité OK (CAVOK)
Température: 9 °C
Point de rosée: 4 °C
Humidité: 71%
Pression (QNH): 1012 hPa
Conditions: Pas de changement dans les 2 heures (NOSIG)
TAF de LFMH
LFMH 141908Z 1419/1512 CNL

Conditions prévues :

Heure d'émission : Bulletin éffectué le 14 à 19:00 UTC
Prévision : Valide du 14 a 19:00 UTC au 15 a 12:00 UTC
Nuages : à 0ft (0 m)
WEBCAM POUR SAINT-ETIENNE

Réglementation

Voler en sécurité

CARTES AERONAUTIQUE 1/500.000
CARTES VAC (LFMH)
SUP AIP




Chargement des AIP...
NOTAM (SAINT-ETIENNE + Terrain à proximité / FIR )




Chargement des NOTAMS...
CONTACT PREFECTURE 42


Avertissement : Les données mises à disposition sont indicatives. Oxygène Drone ne pourra être tenu responsable de dégâts causés aux biens et aux personnes.